Погода в Полтаве

Погода в Полтаве : погода сейчас, прогноз погоды и архив. Всё, что Вы хотите узнать о погоде в Полтаве!

Поиск расширенной информации на нашем сайте:

Другие новости

Новости СМИ2

Главная страница сайта

Новости сайта

03.07.2017

Напоминаем, что на нашем специализированном сайте Метеоцентр.Азия вы можете получить высокодетализированные автоматические прогнозы погоды по пунктам России, СНГ и мира в авиационном формате (включающие направление и скорость ветра, видимость, явления погоды, количество и форму облачности, нижнюю и верхнюю границу облачности).


Погода в Полтаве - сегодня

Время (UTC), дата Ветер
(°,м/с) 
Видим.   Явления Облачность Т
(°С)
Тd
(°С)
f(%) Тe
(°С)
Pmin
(гПа)
dP
(гПа)
Po
(мм)
O2
(г/м3)
Тmin Tmax R s Состояние
почвы
18 17.11.17 150 (ЮВ) 10 км    8/0 верхняя 
[Ci fib]
+2 -0.8 82 +3  1026.2  -0.7  755  302    +6.8       
21 17.11.17 110 (В) 10 км    9/9 600 м 
[Sc]
+0.7 -0.7 90 +1  1025.6  -0.7  754  303           
00 18.11.17 110 (В) 10 км    10/10 600 м 
[Sc]
+2 -1.4 78 +3  1024.9  -0.6  754  302           
03 18.11.17 160 (Ю) 10 км    10/10 600 м 
[Sc]
+2 -0.8 82 +3  1023.6  -1.3  753  301           
06 18.11.17 080 (В) 10 км    10/8 600 м средняя 
[Sc|Ac As]
+1 -0.7 88 +2  1022.8  -0.8  752  302  -0.1  -0.1      влажная 
09 18.11.17 090 (В) 10 км    8/8 600 м 
[Sc]
+3.1 +0.2 81 +2  1021.8  -0.8  751  299           
12 18.11.17 060 (СВ) 10 км    9/6 600 м средняя 
[Sc|Ac und]
+4.6 +1 77 +4  1019.9  -1.8  750  297           
15 18.11.17 090 (В) 10 км  {ливн. осадки}  10/10 600 м кучево-дожд. 
[Cb cap]
+4.5 +0.9 77 +4  1019  -0.9  749  297           
18 18.11.17 110 (В) 4000 м  слаб. ливневой дождь  10/10 600 м кучево-дожд. 
[Cb cap]
+2.7 +2.2 96 +2  1017.9  -1.2  749  298    +4.9     
21 18.11.17 080 (В) 4000 м  дымка{ливн. осадки}  9/9 600 м кучево-дожд. 
[Cb cap]
+2.4 +1.9 97 +3  1016.3  -1.6  747  298           
00 19.11.17 110 (В) 4000 м  дымка{ливн. осадки}  10/10 300 м 
[St]
+2 +1.5 96 +1  1014.9  -1.4  746  298      0.3     
03 19.11.17 140 (ЮВ) 4000 м  слаб. ливневой дождь  10/10 600 м кучево-дожд. 
[Cb cap]
+1.4 +0.9 96 +2  1013  -1.9  745  298           
06 19.11.17 140 (ЮВ) 0200 м  туман{ливн. осадки}  ?/?  
+1.3 +1.3 100 +1  1012.3  -0.7  744  298  +1  -0.2  0.3     
09 19.11.17 220 (ЮЗ) 1000 м  в посл. час туман  10/10 300 м 
[St]
+2.4 +2.1 98 +2  1011.2  -1  744  297           
12 19.11.17 230 (ЮЗ) 4000 м  слаб. ливневой дождь{туман}  10/10 600 м кучево-дожд. 
[Cb calv]
+3.8 +2.6 92 +3  1010.3  -0.8  743  295      0.1     
15 19.11.17 210 (ЮЗ) 4000 м  дымка{ливн. осадки}  10/10 300 м 
[St]
+3.9 +3.7 99 +3    0.1             
18 19.11.17 180 (Ю) 4000 м  дымка{ливн. осадки}  10/10 600 м 
[St]
+3.8 +3.3 97 +3  1010.7  0.3  743  295    +4.1  0.2     
21 19.11.17 070 (В) 4000 м  дымка  10/10 600 м кучево-дожд. 
[Cb calv]
+3.8 +3.3 97 +5  1011.3  0.6  744  295           
00 20.11.17 тихо ()   0500 м  туман  ?/?  
+3.8 +3.8 100 +4  1010.9  -0.4  743  295           
03 20.11.17 050 (СВ) 0200 м  туман  ?/?  
+3.6 +3.6 100 +3  1010.3  -0.6  743  295           
06 20.11.17 050 (СВ) 4000 м  слаб. ливневой дождь{туман}  10/10 600 м кучево-дожд. 
[Cb cap]
+3.4 +3.2 99 +3  1010.2  -0.1  743  295  +2.5    0.3     
09 20.11.17 360 (С) 2000 м  слаб. дождь  10/9 300 м средняя 
[Frnb|As op]
+3.9 +3.4 97 +3  1009.5  -0.6  742  294           
12 20.11.17 010 (С) 4000 м  слаб. дождь  10/9 300 м средняя 
[Frnb|As op]
+3.5 +3 97 +2  1008.3  -1.2  742  295         
15 20.11.17 360 (С) 4000 м  слаб. дождь  10/9 300 м средняя 
[Frnb|As op]
+2.4 +2.1 98 +1  1007  -1.4  740  295           
18 20.11.17 330 (СЗ) 4000 м  слаб. дождь  10/9 300 м средняя 
[Frnb|As op]
+2.1 +1.8 98 +1  1006.5  -0.5  740  296    +4.2     
Время (UTC), дата Ветер
(°,м/с) 
Видим.   Явления Облачность Т
(°С)
Тd
(°С)
f(%) Тe
(°С)
Pmin
(гПа)
dP
(гПа)
Po
(мм)
O2
(г/м3)
Тmin Tmax R s Состояние
почвы

Для получения пояснительной информации подведите курсор к названию столбца.

ПОГОДА в Полтаве - архив

Всё, что Вы хотите узнать о погоде в Полтаве - удобно и подробно!

Выберите нужную дату (начиная с 1 января 2015* года) и нажмите кнопку "Найти".
Будут отображены архивные сводки погоды по пункту Полтава, начиная с указанной даты.


Отображать данные в формате CSV (для использования в таблицах Excel)


Внимание! Наш архив погоды предназначен исключительно для личного некоммерческого использования в познавательных целях. Если Вам необходимы официальные справки о состоянии погоды (для производственных, юридических, коммерческих и т.п. целей), обращайтесь в органы Росгидромета.

*Примечание: данная дата относится к архиву по метеостанциям СССР (Россия, СНГ, Балтия).
Архив по метеостанциям Зарубежной Европы и Азии (кроме Китая) хранится 10 дней, по другим регионам земного шара (Китай, Африка, Америка, Австралия, Океания) - 1 день.

Полтава - район местоположения метеостанции


Название, широта, долгота, высота метеостанции:
Полтава 49.6°ш. 34.6°д. 160 м над ур. моря [Украина]

Дополнительная информация

В oтличие oт бoльшинства пoгoдных сайтoв мы публикуем пoдрoбную метеoинфoрмацию в детальнoм прoфессиoнальнoм фoрмате.

Характеристики температуры и влажнoсти вoздуха измеряются на высoте 2 м в тени вдали oт зданий и деревьев.
Скoрoсть ветра измеряется на высoте 10 м (на урoвне рoста челoвека скoрoсть ветра ниже в 1.5-2 раза). Если метеoстанция нахoдится в гoрoде или в лесу, тo скoрoсть ветра занижена на 2-4 м/с пo сравнению с oткрытым местoм. Скoрoсть ветра над акватoриями крупных рек и oзёр, а также на вершинах хoлмoв на 2-5 м/с выше, чем в oбычных услoвиях.
Атмoсфернoе давление в разных тoчках местнoсти мoжет значительнo oтличаться oт давления на метеoстанции, в зависимoсти oт услoвий рельефа (при пoдъёме на 10 м давление пoнижается примернo на 1 мм рт.ст.).